Regional Weather Roundup
Issued by NWS Portland, ME

Current Version | Previous Version | Text Only | Print | Product List | Glossary Off
Versions: 1 2 3 4 5 6 7 8 9 10 11 12 13 14 15 16 17 18 19 20 21 22 23 24 25 26 27 28 29 30 31 32 33 34 35 36 37 38 39 40 41 42 43 44 45 46 47 48 49 50
000 ASUS41 KGYX 250705 RWRGYX WEATHER ROUNDUP FOR MAINE AND NEW HAMPSHIRE NATIONAL WEATHER SERVICE GRAY ME 300 AM EDT WED APR 25 2018 MEZ002-005-006-010-012-015-018-020-021-024-026-027-029-250800- MAINE CITY SKY/WX TMP DP RH WIND PRES REMARKS PORTLAND FAIR 49 37 63 S5 30.18F SANFORD FAIR 51 35 54 S6 30.19F BAR HARBOR FAIR 45 37 73 SW12 30.21F WISCASSET FAIR 49 39 68 SW8G16 30.20F ROCKLAND FAIR 47 37 68 SW8 30.20F FRYEBURG FAIR 54 36 50 S7 30.15F LEWISTONAUBURN FAIR 48 36 63 S9 30.16F AUGUSTA FAIR 47 37 68 S9 30.16F WATERVILLE FAIR 46 36 68 VRB3 30.14F BANGOR MOCLDY 47 34 60 S7 30.17F GREENVILLE N/A 42 34 73 SE8 30.09F MILLINOCKET FAIR 43 35 73 CALM 30.13F HOULTON FAIR 46 34 62 S9 30.10F PRESQUE ISLE FAIR 44 30 57 SE7 30.10S FRENCHVILLE FAIR 49 28 44 S7 30.05F CARIBOU FAIR 44 29 55 S7 30.08R $$ NHZ002-005-008-009-011-012-014-250800- NEW HAMPSHIRE CITY SKY/WX TMP DP RH WIND PRES REMARKS PORTSMOUTH CLOUDY 53 31 43 S5 30.18F ROCHESTER FAIR 51 35 54 S3 30.18F NASHUA FAIR 52 38 58 CALM 30.19F MANCHESTER CLOUDY 54 35 48 S5 30.17F CONCORD FAIR 51 36 56 S6 30.18F LACONIA FAIR 52 38 58 S8 30.16F PLYMOUTH FAIR 50 37 60 CALM 30.15F BERLIN FAIR 36 29 75 CALM 30.12F WHITEFIELD FAIR 39 31 72 CALM 30.12F JAFFREY CLOUDY 49 38 65 CALM 30.17F KEENE CLOUDY 51 38 60 CALM 30.16F LEBANON FAIR 54 36 50 S12 30.13F MT WASHINGTON MOCLDY 32 18 55 W35 N/A WCI 17 $$ VTZ005-007-008-250800- VERMONT CITY SKY/WX TMP DP RH WIND PRES REMARKS ST JOHNSBURY N/A 54 35 48 MISG 30.10S MONTPELIER FAIR 51 33 50 S13 30.14F BURLINGTON FAIR 58 36 43 S10 30.07F $$ MAZ007-012-024-CTZ003-RIZ002-NYZ038-NYZ072-250800- SOUTHERN NEW ENGLAND AND NY CITY SKY/WX TMP DP RH WIND PRES REMARKS BOSTON FAIR 50 38 63 E6 30.19F WORCESTER FAIR 48 35 60 SE6 30.16F NANTUCKET MOCLDY 48 47 96 SE16 30.20F PROVIDENCE FAIR 50 43 77 CALM 30.18F HARTFORD CLOUDY 52 39 61 E5 30.13F ALBANY LGT RAIN 50 45 83 CALM 30.14F NEW YORK CITY LGT RAIN 50 47 89 NE10 30.05F $$ ANZ081-ANZ082-ANZ150-NHZ014-MEZ023>029-250800- COASTAL MARINE OBSERVATIONS STATION/POSITION TIME TEMP WIND PRES WAVE AIR SEA DIR/SP/G HT/PER (UTC) (F) (DEG/KT/KT) (MB) (FT/S) MOUNT DESERT ROC 0700 44 210/ 10/ 11 1023.8S MATINICUS ROCK 0600 45 210/ 19/ 21 1022.9F ISLE OF SHOALS 0600 53 210/ 17/ 18 1022.7F JEFFREYS LEDGE 0636 42 N/A 3/ 5 CASHES LEDGE BUO 0650 45 42 1023.5F 4/ 5 $$ .............KEY.............. WCI - WIND CHILL TC - TEMPERATURE IN CELSIUS VSB - VISIBILITY IN MILES HX - HEAT INDEX FAIR- INDICATES FEW OR NO CLOUDS BELOW 12,000 FT, WITH NO SIGNIFICANT WEATHER AND/OR OBSTRUCTIONS TO VISIBILITY.

USA.gov is the U.S. government's official web portal to all federal, state and local government web resources and services.